When you browse on this site, cookies collect data to enhance your experience and personalize the content and advertising you see.
Visit our Privacy Policy to learn more. By continuing to use the site, you agree to this use of cookies and data.
  • în România
  • Lista ţărilor
  • Pe 7 zile
  • Temperatura apei
  • Hartă satelitară
  • Meteo pe hartă
  • Widget-uri
  • user-avatar
    Intrare

    Meteo pe oră la Habra

    Astăzi, 18 Iulie, Joi

    Timp Temperatura Precipitaţii Vânt Presiune Umiditate
    00:00 +32°C° 0 mm 2 m/s 750 mmHg 74%
    01:00 +31°C° 0 mm 1 m/s 749 mmHg 75%
    02:00 +31°C° 0 mm 1 m/s 749 mmHg 76%
    03:00 +31°C° 0 mm 1 m/s 748 mmHg 77%
    04:00 +31°C° 0 mm 1 m/s 748 mmHg 77%
    05:00 +31°C° 0 mm 1 m/s 749 mmHg 78%
    06:00 +31°C° 0 mm 1 m/s 749 mmHg 85%
    07:00 +32°C° 0.2 mm 1 m/s 749 mmHg 78%
    08:00 +34°C° 0.2 mm 2 m/s 749 mmHg 71%
    09:00 +36°C° 0.2 mm 2 m/s 749 mmHg 64%
    10:00 +37°C° 0.1 mm 2 m/s 749 mmHg 58%
    11:00 +38°C° 0.1 mm 2 m/s 749 mmHg 53%
    12:00 +39°C° 0 mm 2 m/s 749 mmHg 49%
    13:00 +39°C° 0 mm 2 m/s 749 mmHg 47%
    14:00 +39°C° 0 mm 2 m/s 748 mmHg 46%
    15:00 +39°C° 0 mm 2 m/s 747 mmHg 45%
    16:00 +39°C° 0 mm 2 m/s 747 mmHg 48%
    17:00 +39°C° 0 mm 2 m/s 747 mmHg 50%
    18:00 +38°C° 0 mm 2 m/s 747 mmHg 53%
    19:00 +37°C° 0.5 mm 2 m/s 748 mmHg 58%
    20:00 +35°C° 0.5 mm 3 m/s 748 mmHg 64%
    21:00 +34°C° 0.5 mm 3 m/s 749 mmHg 70%
    22:00 +34°C° 0 mm 3 m/s 749 mmHg 72%
    23:00 +33°C° 0 mm 3 m/s 749 mmHg 74%

    Mâine, 19 Iulie, Vineri

    Timp Temperatura Precipitaţii Vânt Presiune Umiditate
    00:00 +33°C° 0 mm 3 m/s 750 mmHg 76%
    01:00 +31°C° 0 mm 3 m/s 749 mmHg 78%
    02:00 +31°C° 0 mm 2 m/s 749 mmHg 79%
    03:00 +31°C° 0 mm 2 m/s 748 mmHg 81%
    04:00 +31°C° 0 mm 2 m/s 749 mmHg 82%
    05:00 +31°C° 0 mm 2 m/s 749 mmHg 82%
    06:00 +30°C° 0 mm 2 m/s 750 mmHg 83%
    07:00 +32°C° 0 mm 2 m/s 750 mmHg 76%
    08:00 +34°C° 0 mm 3 m/s 750 mmHg 68%
    09:00 +36°C° 0 mm 3 m/s 751 mmHg 61%
    10:00 +37°C° 0 mm 3 m/s 750 mmHg 56%
    11:00 +38°C° 0 mm 3 m/s 750 mmHg 52%
    12:00 +40°C° 0 mm 4 m/s 750 mmHg 47%
    13:00 +40°C° 0 mm 4 m/s 749 mmHg 47%
    14:00 +40°C° 0 mm 4 m/s 749 mmHg 47%
    15:00 +40°C° 0 mm 4 m/s 748 mmHg 47%
    16:00 +38°C° 0 mm 4 m/s 748 mmHg 51%
    17:00 +37°C° 0 mm 4 m/s 748 mmHg 55%
    18:00 +36°C° 0 mm 4 m/s 748 mmHg 59%
    19:00 +35°C° 0 mm 5 m/s 749 mmHg 63%
    20:00 +34°C° 0 mm 5 m/s 749 mmHg 66%
    21:00 +33°C° 0 mm 5 m/s 750 mmHg 70%
    22:00 +33°C° 0 mm 5 m/s 750 mmHg 73%
    23:00 +32°C° 0 mm 4 m/s 750 mmHg 75%

    Poimâine, 20 Iulie, Sâmbătă

    Timp Temperatura Precipitaţii Vânt Presiune Umiditate
    00:00 +32°C° 0 mm 4 m/s 750 mmHg 78%
    01:00 +31°C° 0 mm 3 m/s 750 mmHg 79%
    02:00 +31°C° 0 mm 3 m/s 750 mmHg 80%
    03:00 +30°C° 0 mm 3 m/s 750 mmHg 81%
    04:00 +30°C° 0 mm 3 m/s 750 mmHg 82%
    05:00 +30°C° 0 mm 2 m/s 751 mmHg 82%
    06:00 +30°C° 0 mm 2 m/s 751 mmHg 83%
    07:00 +31°C° 0 mm 3 m/s 751 mmHg 76%
    08:00 +34°C° 0 mm 4 m/s 751 mmHg 69%
    09:00 +35°C° 0 mm 4 m/s 752 mmHg 62%
    10:00 +37°C° 0 mm 4 m/s 751 mmHg 57%
    11:00 +39°C° 0 mm 5 m/s 751 mmHg 53%
    12:00 +40°C° 0 mm 5 m/s 751 mmHg 48%
    13:00 +40°C° 0 mm 5 m/s 750 mmHg 48%
    14:00 +40°C° 0 mm 5 m/s 749 mmHg 48%
    15:00 +40°C° 0 mm 5 m/s 749 mmHg 48%
    16:00 +39°C° 0 mm 5 m/s 749 mmHg 51%
    17:00 +37°C° 0 mm 5 m/s 748 mmHg 53%
    18:00 +36°C° 0 mm 5 m/s 748 mmHg 56%
    19:00 +35°C° 0 mm 5 m/s 749 mmHg 60%
    20:00 +34°C° 0 mm 5 m/s 749 mmHg 64%
    21:00 +33°C° 0 mm 5 m/s 749 mmHg 69%
    22:00 +33°C° 0 mm 5 m/s 750 mmHg 72%
    23:00 +32°C° 0 mm 5 m/s 750 mmHg 74%

    21 Iulie, Duminică

    Timp Temperatura Precipitaţii Vânt Presiune Umiditate
    00:00 +32°C° 0 mm 4 m/s 750 mmHg 77%
    01:00 +32°C° 0 mm 4 m/s 750 mmHg 78%
    02:00 +30°C° 0 mm 4 m/s 750 mmHg 79%
    03:00 +30°C° 0 mm 4 m/s 749 mmHg 80%
    04:00 +30°C° 0 mm 4 m/s 749 mmHg 81%
    05:00 +30°C° 0 mm 4 m/s 750 mmHg 81%
    06:00 +30°C° 0 mm 4 m/s 750 mmHg 81%
    07:00 +32°C° 0 mm 4 m/s 750 mmHg 75%
    08:00 +34°C° 0 mm 4 m/s 750 mmHg 70%
    09:00 +35°C° 0 mm 5 m/s 751 mmHg 64%
    10:00 +36°C° 0 mm 5 m/s 750 mmHg 57%
    11:00 +39°C° 0 mm 5 m/s 750 mmHg 51%
    12:00 +40°C° 0 mm 4 m/s 750 mmHg 45%
    13:00 +40°C° 0 mm 5 m/s 749 mmHg 45%
    14:00 +40°C° 0 mm 5 m/s 748 mmHg 46%
    15:00 +40°C° 0 mm 5 m/s 748 mmHg 47%
    16:00 +39°C° 0 mm 5 m/s 748 mmHg 49%
    17:00 +37°C° 0 mm 5 m/s 748 mmHg 51%
    18:00 +37°C° 0 mm 5 m/s 748 mmHg 53%
    19:00 +36°C° 0 mm 5 m/s 748 mmHg 57%
    20:00 +34°C° 0 mm 6 m/s 749 mmHg 62%
    21:00 +33°C° 0 mm 6 m/s 749 mmHg 66%
    22:00 +33°C° 0 mm 6 m/s 749 mmHg 69%
    23:00 +33°C° 0 mm 5 m/s 749 mmHg 71%

    22 Iulie, Luni

    Timp Temperatura Precipitaţii Vânt Presiune Umiditate
    00:00 +32°C° 0 mm 5 m/s 749 mmHg 74%
    01:00 +32°C° 0 mm 5 m/s 749 mmHg 75%
    02:00 +32°C° 0 mm 5 m/s 749 mmHg 77%
    03:00 +32°C° 0 mm 5 m/s 748 mmHg 79%
    04:00 +32°C° 0 mm 5 m/s 749 mmHg 79%
    05:00 +32°C° 0 mm 5 m/s 749 mmHg 79%
    06:00 +32°C° 0 mm 4 m/s 749 mmHg 80%
    07:00 +33°C° 0 mm 5 m/s 749 mmHg 75%
    08:00 +34°C° 0 mm 5 m/s 749 mmHg 70%
    09:00 +35°C° 0 mm 5 m/s 750 mmHg 65%
    10:00 +36°C° 0 mm 5 m/s 749 mmHg 59%
    11:00 +37°C° 0 mm 5 m/s 749 mmHg 53%
    12:00 +40°C° 0 mm 4 m/s 749 mmHg 47%
    13:00 +40°C° 0 mm 4 m/s 748 mmHg 45%
    14:00 +40°C° 0 mm 4 m/s 748 mmHg 43%
    15:00 +40°C° 0 mm 4 m/s 747 mmHg 41%
    16:00 +40°C° 0 mm 5 m/s 747 mmHg 43%
    17:00 +39°C° 0 mm 5 m/s 747 mmHg 45%
    18:00 +38°C° 0 mm 6 m/s 747 mmHg 47%
    19:00 +35°C° 0 mm 6 m/s 748 mmHg 52%
    20:00 +34°C° 0 mm 6 m/s 748 mmHg 57%
    21:00 +33°C° 0 mm 6 m/s 749 mmHg 62%
    22:00 +32°C° 0 mm 5 m/s 749 mmHg 65%
    23:00 +32°C° 0 mm 4 m/s 749 mmHg 68%

    23 Iulie, Marţi

    Timp Temperatura Precipitaţii Vânt Presiune Umiditate
    00:00 +30°C° 0 mm 3 m/s 749 mmHg 71%
    01:00 +30°C° 0 mm 3 m/s 749 mmHg 73%
    02:00 +30°C° 0 mm 3 m/s 748 mmHg 75%
    03:00 +30°C° 0 mm 3 m/s 748 mmHg 78%
    04:00 +30°C° 0 mm 3 m/s 748 mmHg 80%
    05:00 +30°C° 0 mm 2 m/s 748 mmHg 82%
    06:00 +30°C° 0 mm 1 m/s 748 mmHg 84%
    07:00 +31°C° 0 mm 2 m/s 749 mmHg 77%
    08:00 +34°C° 0 mm 3 m/s 749 mmHg 70%
    09:00 +35°C° 0 mm 4 m/s 749 mmHg 63%
    10:00 +36°C° 0.3 mm 4 m/s 749 mmHg 60%
    11:00 +37°C° 0.3 mm 3 m/s 748 mmHg 57%
    12:00 +37°C° 0.3 mm 3 m/s 748 mmHg 54%
    13:00 +37°C° 0.8 mm 4 m/s 747 mmHg 54%
    14:00 +38°C° 0.8 mm 4 m/s 747 mmHg 53%
    15:00 +38°C° 0.8 mm 4 m/s 746 mmHg 53%
    16:00 +37°C° 1.3 mm 4 m/s 746 mmHg 56%
    17:00 +36°C° 1.3 mm 4 m/s 746 mmHg 60%
    18:00 +36°C° 1.3 mm 4 m/s 746 mmHg 63%
    19:00 +35°C° 0.2 mm 4 m/s 747 mmHg 67%
    20:00 +34°C° 0.2 mm 4 m/s 747 mmHg 71%
    21:00 +33°C° 0.2 mm 4 m/s 748 mmHg 76%
    22:00 +32°C° 0 mm 4 m/s 748 mmHg 78%
    23:00 +31°C° 0 mm 3 m/s 748 mmHg 80%
    Arată mai mult